Lawrenceville, IL

7:27 PM CDT on August 25, 2016 (GMT -0500)
Lawrenceville-Vincennes International

Weather History for KLWV - December, 2013

Change the Weather History Date:

Monday, December 16, 2013

  Actual Average Record
Temperature  
Mean Temperature 34 °F 34 °F  
Max Temperature 39 °F 42 °F 58 °F (1990)
Min Temperature 28 °F 27 °F 14 °F (2000)
Degree Days  
Heating Degree Days 31 31  
Month to date heating degree days 566 453  
Since 1 July heating degree days 1590 1311  
Cooling Degree Days 0 0  
Month to date cooling degree days 0 0  
Year to date cooling degree days 1287 1387  
Moisture  
Dew Point 29 °F    
Average Humidity 84    
Maximum Humidity 92    
Minimum Humidity 76    
Precipitation  
Precipitation 0.00 in 0.09 in 0.86 in (2001)
Month to date precipitation 0.78 1.73  
Year to date precipitation 51.36 42.22  
Sea Level Pressure  
Sea Level Pressure 30.07 in    
Wind  
Wind Speed 6 mph (South)    
Max Wind Speed 15 mph    
Max Gust Speed 18 mph    
Visibility 4 miles    
Events      
T = Trace of Precipitation, MM = Missing Value Source: NWS Daily Summary

Daily Weather History Graph

Daily Weather History Graph

Search for Another Location

Airport or City:

Trip Planner

Search our weather history database for the weather conditions in past years. The results will help you decide how hot, cold, wet, or windy it might be!

Date:

Astronomy

Dec. 16, 2013 Rise Set
Actual Time 7:02 AM CST 4:30 PM CST
Civil Twilight 6:32 AM CST 5:00 PM CST
Nautical Twilight 5:58 AM CST 5:33 PM CST
Astronomical Twilight 5:26 AM CST 6:05 PM CST
Moon 4:19 PM CST (12/16) 6:10 AM CST (12/16)
Length of Visible Light 10h 27m
Length of Day
9h 27m
Full, 100% of the Moon is Illuminated
Dec 16
Full
Dec 17
Full
Dec 25
Last Quarter
Jan 1
New
Jan 7
First Quarter

Hourly Weather History & Observations

Time (CST) Temp. Windchill Dew Point Humidity Pressure Visibility Wind Dir Wind Speed Gust Speed Precip Events Conditions
12:53 AM 30.9 °F 24.3 °F 28.0 °F 89% 30.11 in 4.0 mi South 6.9 mph - N/A   Overcast
1:53 AM 30.9 °F 23.5 °F 28.0 °F 89% 30.10 in 4.0 mi SSE 8.1 mph - N/A   Overcast
2:53 AM 30.9 °F 22.8 °F 28.0 °F 89% 30.09 in 4.0 mi South 9.2 mph - N/A   Overcast
3:31 AM 30.9 °F 23.5 °F 28.9 °F 92% 30.06 in 4.0 mi South 8.1 mph - N/A   Overcast
3:53 AM 30.9 °F 23.5 °F 28.9 °F 92% 30.07 in 4.0 mi South 8.1 mph - N/A   Mostly Cloudy
4:53 AM 30.9 °F 26.2 °F 28.0 °F 89% 30.07 in 4.0 mi SSE 4.6 mph - N/A   Mostly Cloudy
5:53 AM 30.0 °F 25.2 °F 28.0 °F 92% 30.08 in 4.0 mi East 4.6 mph - N/A   Scattered Clouds
6:53 AM 30.0 °F 24.1 °F 28.0 °F 92% 30.08 in 3.0 mi East 5.8 mph - N/A   Mostly Cloudy
7:21 AM 30.0 °F 24.1 °F 28.0 °F 92% 30.07 in 2.5 mi East 5.8 mph - N/A   Clear
7:53 AM 30.0 °F 24.1 °F 28.0 °F 92% 30.08 in 2.5 mi East 5.8 mph - N/A   Clear
8:53 AM 30.9 °F 27.5 °F 28.0 °F 89% 30.10 in 2.5 mi ESE 3.5 mph - N/A   Clear
9:53 AM 34.0 °F - 28.9 °F 82% 30.10 in 3.0 mi Calm Calm - N/A   Haze
10:53 AM 34.0 °F 29.8 °F 30.9 °F 89% 30.09 in 3.0 mi South 4.6 mph - N/A   Clear
11:53 AM 35.1 °F 27.9 °F 30.9 °F 85% 30.05 in 4.0 mi South 9.2 mph - N/A   Clear
12:53 PM 37.0 °F 34.5 °F 30.9 °F 79% 30.04 in 4.0 mi SSW 3.5 mph - N/A   Haze
1:53 PM 37.0 °F 31.0 °F 30.9 °F 79% 30.03 in 5.0 mi SSW 8.1 mph - N/A   Haze
2:53 PM 37.9 °F 34.4 °F 30.9 °F 76% 30.04 in 5.0 mi WSW 4.6 mph - N/A   Haze
3:53 PM 37.0 °F 34.5 °F 30.9 °F 79% 30.06 in 4.0 mi SSW 3.5 mph - N/A   Haze
4:53 PM 37.9 °F - 30.0 °F 73% 30.06 in 7.0 mi Calm Calm - N/A   Clear
5:53 PM 30.9 °F 25.2 °F 27.0 °F 85% 30.05 in 6.0 mi South 5.8 mph - N/A   Clear
6:53 PM 32.0 °F 26.4 °F 28.0 °F 85% 30.05 in 5.0 mi SSW 5.8 mph - N/A   Clear
7:53 PM 30.0 °F 26.5 °F 28.0 °F 92% 30.06 in 4.0 mi WSW 3.5 mph - N/A   Clear
8:53 PM 28.0 °F 22.8 °F 26.1 °F 92% 30.05 in 4.0 mi SSW 4.6 mph - N/A   Clear
9:53 PM 32.0 °F 24.2 °F 28.9 °F 88% 30.07 in 5.0 mi NW 9.2 mph - N/A   Clear
10:53 PM 32.0 °F 24.8 °F 28.0 °F 85% 30.06 in 4.0 mi WNW 8.1 mph - N/A   Clear
11:53 PM 30.0 °F 20.0 °F 27.0 °F 88% 30.09 in 2.5 mi NNW 12.7 mph - N/A   Mostly Cloudy